This is the latest recevied weather packets stored in our database for station/object DG7FDL-13. If no packets are shown the sender has not sent any weather packets the latest 10 day(s).
| Time | Temp. | Humidity | Pressure | Rain* | Wind** | Luminosity | Snow |
|---|---|---|---|---|---|---|---|
| 1778075479 | 17.22° C | 64% | 1005.3 hPa | 0 mm | - | - | - |
| 1778074271 | 17.22° C | 61% | 1005.5 hPa | 0 mm | - | - | - |
| 1778069383 | 16.67° C | 64% | 1005.5 hPa | 0 mm | - | - | - |
| 1778064727 | 15° C | 82% | 1005.8 hPa | 0 mm | - | - | - |
| 1778062807 | 14.44° C | 85% | 1005.9 hPa | 0 mm | - | - | - |
| 1778062087 | 15° C | 88% | 1006 hPa | 0 mm | - | - | - |
| 1778061003 | 14.44° C | 88% | 1005.9 hPa | 0 mm | - | - | - |
| 1778058487 | 13.89° C | 94% | 1005.7 hPa | 0 mm | - | - | - |
| 1778056759 | 13.89° C | 96% | 1005.5 hPa | 0 mm | - | - | - |
| 1778053927 | 13.33° C | 99% | 1005.5 hPa | 0 mm | - | - | - |
| 1778048407 | 12.78° C | - | 1005.3 hPa | 0 mm | - | - | - |
| 1778047831 | 12.78° C | - | 1005.2 hPa | 0 mm | - | - | - |
| 1778045383 | 12.22° C | - | 1005.4 hPa | 0 mm | - | - | - |
| 1778044759 | 12.22° C | - | 1005.4 hPa | 0 mm | - | - | - |
| 1778044183 | 12.22° C | - | 1005.2 hPa | 0.25 mm | - | - | - |
| 1778043559 | 12.22° C | - | 1005.2 hPa | 0.25 mm | - | - | - |
| 1778042331 | 12.22° C | - | 1004.9 hPa | 0.25 mm | - | - | - |
| 1778041687 | 12.22° C | - | 1005.1 hPa | 0.25 mm | - | - | - |
| 1778030551 | 12.78° C | - | 1006.1 hPa | 0 mm | - | - | - |
| 1778027383 | 13.33° C | 98% | 1006.3 hPa | 0 mm | - | - | - |
| 1778026182 | 12.78° C | - | 1006.5 hPa | 0 mm | - | - | - |
| 1778018983 | 13.89° C | 96% | 1007.2 hPa | 1.02 mm | - | - | - |
| 1778016679 | 13.33° C | 98% | 1007.3 hPa | 1.52 mm | - | - | - |
| 1778013079 | 13.89° C | 97% | 1007.7 hPa | 2.03 mm | - | - | - |
| 1778010727 | 13.89° C | 97% | 1007.4 hPa | 3.81 mm | - | - | - |
* Rain latest hour (hover to see other rain measurements)
** Current wind speed in m/s (hover to see current wind gust speed)